{"data":{"norad_id":59777,"epoch":"2026-05-24T22:08:10.463712Z","epoch_age_seconds":82511,"freshness":"FRESH","line1":"1 59777U 24092E   26144.92234333  .00017565  00000+0  50413-3 0  9997","line2":"2 59777  97.6542 277.0178 0006876 223.7841 136.2858 15.35905617112173","mean_motion":15.35905617,"eccentricity":0.0006876,"inclination_deg":97.6542,"raan_deg":277.0178,"arg_perigee_deg":223.7841,"mean_anomaly_deg":136.2858,"bstar":0.00050413,"rev_number":11217,"period_min":93.755761035152,"perigee_km":453.53119797668,"apogee_km":462.93257246764,"semimajor_km":6836.3688852222,"source":"CELESTRAK","updated_at":"2026-05-25T13:38:01.674747Z"}}